Location: Leo
(52.0556°N, 112.3605°W)
Time: 11:39:59
(UTC+00:00)

CAS-4B - Visible Passes

Search period start: 05 December 2023 00:00
Search period end: 15 December 2023 00:00
Orbit: 494 x 508 km, 43.0° (Epoch: 05 December)

Date Brightness Start Highest point End Pass type
(mag) Time Alt. Az. Time Alt. Az. Time Alt. Az.
05 Dec ? 00:23:19 10° SW 00:26:18 21° S 00:29:16 10° SE visible
05 Dec ? 02:02:15 10° WSW 02:04:52 18° SSW 02:05:16 17° S visible
06 Dec ? 00:01:28 10° SW 00:04:27 21° S 00:07:25 10° SE visible
06 Dec ? 01:40:26 10° WSW 01:43:01 17° SSW 01:44:39 14° SSE visible
07 Dec ? 01:18:35 10° WSW 01:21:08 17° SSW 01:23:40 10° SSE visible
08 Dec ? 00:56:44 10° WSW 00:59:14 17° SSW 01:01:43 10° SSE visible
09 Dec ? 00:34:51 10° WSW 00:37:18 16° SSW 00:39:45 10° SSE visible
10 Dec ? 00:12:57 10° SW 00:15:21 16° SSW 00:17:44 10° SSE visible
